• In Deutschland
  • Länderverzeichnis
  • Für 7 Tage
  • Wassertemperatur
  • Satellitenkarten
  • Wetterkarte
  • Widgets
  • user-avatar
    Anmelden

    Stündliche Wetter Pernik

    Heute, 22 Juli, Sonntag

    Zeit Temperatur Niederschläge Wind Luftdruck Luftfeuchtigkeit
    00:00 +18°C° 0 mm 1 m/S 690 mmHg 60%
    01:00 +18°C° 0 mm 1 m/S 690 mmHg 61%
    02:00 +18°C° 0 mm 1 m/S 690 mmHg 61%
    03:00 +18°C° 0 mm 1 m/S 690 mmHg 62%
    04:00 +16°C° 0 mm 1 m/S 690 mmHg 62%
    05:00 +16°C° 0 mm 1 m/S 689 mmHg 63%
    06:00 +20°C° 0 mm 1 m/S 690 mmHg 58%
    07:00 +22°C° 0 mm 1 m/S 690 mmHg 53%
    08:00 +25°C° 0 mm 1 m/S 690 mmHg 48%
    09:00 +27°C° 0 mm 2 m/S 690 mmHg 42%
    10:00 +29°C° 0 mm 2 m/S 690 mmHg 36%
    11:00 +31°C° 0 mm 2 m/S 690 mmHg 30%
    12:00 +33°C° 0 mm 3 m/S 690 mmHg 29%
    13:00 +34°C° 0 mm 3 m/S 690 mmHg 27%
    14:00 +35°C° 0 mm 4 m/S 690 mmHg 25%
    15:00 +34°C° 0 mm 3 m/S 689 mmHg 27%
    16:00 +33°C° 0 mm 3 m/S 689 mmHg 29%
    17:00 +33°C° 0 mm 3 m/S 688 mmHg 30%
    18:00 +29°C° 0 mm 2 m/S 688 mmHg 37%
    19:00 +27°C° 0 mm 2 m/S 687 mmHg 44%
    20:00 +24°C° 0 mm 1 m/S 687 mmHg 50%
    21:00 +23°C° 0 mm 1 m/S 687 mmHg 54%
    22:00 +21°C° 0 mm 1 m/S 687 mmHg 57%
    23:00 +20°C° 0 mm 1 m/S 687 mmHg 61%

    Morgen, 23 Juli, Montag

    Zeit Temperatur Niederschläge Wind Luftdruck Luftfeuchtigkeit
    00:00 +19°C° 0,1 mm 1 m/S 687 mmHg 64%
    01:00 +19°C° 0,1 mm 1 m/S 687 mmHg 68%
    02:00 +18°C° 0,1 mm 1 m/S 687 mmHg 71%
    03:00 +18°C° 0 mm 1 m/S 687 mmHg 73%
    04:00 +16°C° 0 mm 1 m/S 687 mmHg 75%
    05:00 +16°C° 0 mm 1 m/S 686 mmHg 77%
    06:00 +19°C° 0 mm 1 m/S 687 mmHg 70%
    07:00 +21°C° 0 mm 1 m/S 687 mmHg 64%
    08:00 +24°C° 0 mm 1 m/S 687 mmHg 58%
    09:00 +25°C° 0,1 mm 2 m/S 687 mmHg 52%
    10:00 +27°C° 0,1 mm 2 m/S 687 mmHg 46%
    11:00 +28°C° 0,1 mm 3 m/S 687 mmHg 40%
    12:00 +28°C° 0 mm 3 m/S 687 mmHg 39%
    13:00 +29°C° 0 mm 3 m/S 686 mmHg 37%
    14:00 +29°C° 0 mm 3 m/S 686 mmHg 36%
    15:00 +28°C° 0,6 mm 3 m/S 686 mmHg 42%
    16:00 +27°C° 0,6 mm 3 m/S 685 mmHg 48%
    17:00 +26°C° 0,6 mm 3 m/S 685 mmHg 54%
    18:00 +22°C° 2,1 mm 3 m/S 685 mmHg 65%
    19:00 +20°C° 2,1 mm 2 m/S 685 mmHg 76%
    20:00 +19°C° 2,1 mm 1 m/S 684 mmHg 87%
    21:00 +18°C° 0,6 mm 1 m/S 685 mmHg 88%
    22:00 +18°C° 0,6 mm 1 m/S 685 mmHg 89%
    23:00 +16°C° 0,6 mm 1 m/S 685 mmHg 90%

    übermorgen, 24 Juli, Dienstag

    Zeit Temperatur Niederschläge Wind Luftdruck Luftfeuchtigkeit
    00:00 +16°C° 0,1 mm 1 m/S 685 mmHg 91%
    01:00 +16°C° 0,1 mm 1 m/S 684 mmHg 92%
    02:00 +16°C° 0,1 mm 1 m/S 684 mmHg 92%
    03:00 +15°C° 0,1 mm 1 m/S 684 mmHg 93%
    04:00 +15°C° 0,1 mm 1 m/S 684 mmHg 94%
    05:00 +15°C° 0,1 mm 1 m/S 684 mmHg 94%
    06:00 +16°C° 0,1 mm 2 m/S 684 mmHg 92%
    07:00 +17°C° 0,1 mm 2 m/S 685 mmHg 90%
    08:00 +17°C° 0,1 mm 2 m/S 685 mmHg 88%
    09:00 +19°C° 0,3 mm 2 m/S 685 mmHg 83%
    10:00 +20°C° 0,3 mm 3 m/S 686 mmHg 78%
    11:00 +21°C° 0,3 mm 3 m/S 686 mmHg 73%
    12:00 +21°C° 0,7 mm 3 m/S 686 mmHg 72%
    13:00 +22°C° 0,7 mm 3 m/S 686 mmHg 71%
    14:00 +22°C° 0,7 mm 4 m/S 686 mmHg 70%
    15:00 +22°C° 0,5 mm 3 m/S 686 mmHg 71%
    16:00 +22°C° 0,5 mm 3 m/S 686 mmHg 71%
    17:00 +22°C° 0,5 mm 3 m/S 686 mmHg 71%
    18:00 +21°C° 0,3 mm 3 m/S 686 mmHg 76%
    19:00 +19°C° 0,3 mm 2 m/S 686 mmHg 82%
    20:00 +18°C° 0,3 mm 2 m/S 686 mmHg 87%
    21:00 +19°C° 0 mm 1 m/S 686 mmHg 89%
    22:00 +18°C° 0 mm 1 m/S 686 mmHg 91%
    23:00 +18°C° 0 mm 1 m/S 686 mmHg 94%

    25 Juli, Mittwoch

    Zeit Temperatur Niederschläge Wind Luftdruck Luftfeuchtigkeit
    00:00 +16°C° 0,1 mm 1 m/S 686 mmHg 94%
    01:00 +16°C° 0,1 mm 1 m/S 686 mmHg 95%
    02:00 +16°C° 0,1 mm 1 m/S 686 mmHg 95%
    03:00 +16°C° 0 mm 1 m/S 686 mmHg 95%
    04:00 +16°C° 0 mm 1 m/S 686 mmHg 95%
    05:00 +16°C° 0 mm 1 m/S 686 mmHg 95%
    06:00 +18°C° 0 mm 1 m/S 687 mmHg 91%
    07:00 +19°C° 0 mm 1 m/S 687 mmHg 86%
    08:00 +20°C° 0 mm 1 m/S 688 mmHg 82%
    09:00 +20°C° 0,1 mm 2 m/S 688 mmHg 76%
    10:00 +21°C° 0,1 mm 2 m/S 688 mmHg 71%
    11:00 +24°C° 0,1 mm 2 m/S 688 mmHg 65%
    12:00 +24°C° 0,5 mm 2 m/S 688 mmHg 64%
    13:00 +25°C° 0,5 mm 2 m/S 688 mmHg 63%
    14:00 +25°C° 0,5 mm 2 m/S 688 mmHg 61%
    15:00 +25°C° 0,9 mm 2 m/S 688 mmHg 64%
    16:00 +25°C° 0,9 mm 2 m/S 688 mmHg 66%
    17:00 +24°C° 0,9 mm 2 m/S 688 mmHg 69%
    18:00 +23°C° 1,2 mm 1 m/S 688 mmHg 74%
    19:00 +21°C° 1,2 mm 1 m/S 687 mmHg 80%
    20:00 +20°C° 1,2 mm 1 m/S 687 mmHg 86%
    21:00 +19°C° 0,8 mm 1 m/S 688 mmHg 88%
    22:00 +19°C° 0,8 mm 1 m/S 688 mmHg 89%
    23:00 +18°C° 0,8 mm 1 m/S 688 mmHg 91%

    26 Juli, Donnerstag

    Zeit Temperatur Niederschläge Wind Luftdruck Luftfeuchtigkeit
    00:00 +18°C° 0,3 mm 1 m/S 688 mmHg 92%
    01:00 +18°C° 0,3 mm 1 m/S 688 mmHg 93%
    02:00 +18°C° 0,3 mm 1 m/S 687 mmHg 94%
    03:00 +16°C° 0,1 mm 1 m/S 688 mmHg 94%
    04:00 +16°C° 0,1 mm 1 m/S 688 mmHg 94%
    05:00 +16°C° 0,1 mm 1 m/S 688 mmHg 95%
    06:00 +18°C° 0,1 mm 1 m/S 688 mmHg 91%
    07:00 +20°C° 0,1 mm 1 m/S 688 mmHg 87%
    08:00 +21°C° 0,1 mm 1 m/S 689 mmHg 84%
    09:00 +22°C° 0,3 mm 1 m/S 689 mmHg 77%
    10:00 +24°C° 0,3 mm 1 m/S 689 mmHg 71%
    11:00 +25°C° 0,3 mm 2 m/S 689 mmHg 64%
    12:00 +26°C° 0,5 mm 2 m/S 689 mmHg 62%
    13:00 +26°C° 0,5 mm 2 m/S 689 mmHg 59%
    14:00 +27°C° 0,5 mm 2 m/S 689 mmHg 56%
    15:00 +27°C° 0,6 mm 2 m/S 689 mmHg 58%
    16:00 +26°C° 0,6 mm 2 m/S 689 mmHg 59%
    17:00 +26°C° 0,6 mm 2 m/S 689 mmHg 60%
    18:00 +24°C° 0,7 mm 2 m/S 689 mmHg 67%
    19:00 +23°C° 0,7 mm 1 m/S 689 mmHg 73%
    20:00 +21°C° 0,7 mm 1 m/S 688 mmHg 79%
    21:00 +20°C° 0,2 mm 1 m/S 689 mmHg 82%
    22:00 +19°C° 0,2 mm 1 m/S 689 mmHg 84%
    23:00 +19°C° 0,2 mm 1 m/S 689 mmHg 87%

    27 Juli, Freitag

    Zeit Temperatur Niederschläge Wind Luftdruck Luftfeuchtigkeit
    00:00 +16°C° 0,1 mm 0 m/S 689 mmHg 87%
    01:00 +16°C° 0,1 mm 0 m/S 689 mmHg 88%
    02:00 +16°C° 0,1 mm 0 m/S 689 mmHg 88%
    03:00 +15°C° 0 mm 0 m/S 689 mmHg 88%
    04:00 +15°C° 0 mm 0 m/S 689 mmHg 88%
    05:00 +15°C° 0 mm 0 m/S 689 mmHg 89%
    06:00 +17°C° 0 mm 0 m/S 689 mmHg 82%
    07:00 +21°C° 0 mm 1 m/S 690 mmHg 76%
    08:00 +23°C° 0 mm 1 m/S 690 mmHg 70%
    09:00 +24°C° 0,1 mm 1 m/S 690 mmHg 63%
    10:00 +26°C° 0,1 mm 1 m/S 691 mmHg 57%
    11:00 +28°C° 0,1 mm 1 m/S 691 mmHg 50%
    12:00 +29°C° 0,1 mm 1 m/S 690 mmHg 47%
    13:00 +29°C° 0,1 mm 1 m/S 690 mmHg 44%
    14:00 +30°C° 0,1 mm 2 m/S 690 mmHg 42%
    15:00 +30°C° 0,2 mm 2 m/S 690 mmHg 44%
    16:00 +29°C° 0,2 mm 2 m/S 690 mmHg 47%
    17:00 +29°C° 0,2 mm 2 m/S 690 mmHg 49%
    18:00 +27°C° 0,3 mm 1 m/S 689 mmHg 55%
    19:00 +25°C° 0,3 mm 1 m/S 689 mmHg 61%
    20:00 +23°C° 0,3 mm 1 m/S 689 mmHg 67%
    21:00 +22°C° 0,2 mm 1 m/S 689 mmHg 70%
    22:00 +21°C° 0,2 mm 1 m/S 689 mmHg 73%
    23:00 +20°C° 0,2 mm 1 m/S 689 mmHg 77%
    Mehr zeigen